This demonstration page uses our WeatherBlox Daily Observations layout. Learn more.

Left ArrowRight Arrow

Hourly Observations for March 12, 2016

Temp ( °F °C ) Dew Point ( °F °C ) Humidity (%) Winds ( mph kmh ) Pressure ( in mb ) Visibility ( mi km ) Precip ( " mm )
12:54 am 00:54 Clear 48 8.9 36 2.2 63 63 S 6 9 30.09 1019 9 14 0.00 0.00
1:54 am 01:54 Clear 47 8.3 36 2.2 66 66 Calm 30.08 1019 10 16 0.00 0.00
2:54 am 02:54 Clear 41 5 34 1.1 76 76 Calm 30.06 1018 9 14 0.00 0.00
3:54 am 03:54 Clear 34 1.1 30 -1.1 85 85 N 6 9 30.04 1017 8 13 0.00 0.00
4:54 am 04:54 Clear 37 2.8 32 0 82 82 N 7 11 30.03 1017 8 13 0.00 0.00
5:54 am 05:54 Clear 37 2.8 32 0 82 82 Calm 30.03 1017 9 14 0.00 0.00
6:54 am 06:54 Sunny 37 2.8 32 0 82 82 NNW 5 7 30.03 1017 10 16 0.00 0.00
7:54 am 07:54 Mostly Cloudy 42 5.6 35 1.7 76 76 Calm 30.02 1017 9 14 0.00 0.00
8:54 am 08:54 Cloudy 48 8.9 40 4.4 74 74 Calm 30.01 1016 9 14 0.00 0.00
9:54 am 09:54 Cloudy 51 10.6 46 7.8 83 83 VRB 3 6 30.01 1016 9 14 0.00 0.00
10:54 am 10:54 Cloudy 53 11.7 47 8.3 80 80 ESE 8 13 29.99 1016 8 13 0.00 0.00
11:54 am 11:54 Cloudy with Mist and Fog 53 11.7 49 9.4 86 86 SE 9 15 29.96 1015 4 6 0.00 0.00
12:04 pm 12:04 Cloudy with Mist and Fog 54 12.2 50 10 87 87 SE 8 13 29.97 1015 3 4 0.00 0.00
12:23 pm 12:23 Cloudy with Mist and Fog 52 11.1 50 10 93 93 ESE 7 11 29.97 1015 1 2 0.00 0.00
12:54 pm 12:54 Cloudy with Light Rain 52 11.1 51 10.6 97 97 SE 6 9 29.95 1014 2 2 0.04 1.02
1:11 pm 13:11 Cloudy with Light Rain 53 11.7 51 10.6 93 93 SE 9 15 29.94 1014 4 6 0.02 0.51
1:37 pm 13:37 Cloudy with Light Rain 53 11.7 52 11.1 96 96 SSE 7 11 29.91 1013 5 8 0.02 0.51
1:50 pm 13:50 Cloudy with Light Rain 54 12 52 11 94 94 SE 9 15 29.91 1013 8 13 0.00 0.00
1:54 pm 13:54 Cloudy with Light Rain 54 12.2 51 10.6 90 90 SE 9 15 29.91 1013 9 14 0.02 0.51
2:16 pm 14:16 Cloudy 54 12 52 11 94 94 SE 9 15 29.91 1013 10 16 0.00 0.00
2:54 pm 14:54 Cloudy with Light Rain 54 12.2 52 11.1 93 93 SSE 9 15 29.90 1013 10 16 0.00 0.03
3:15 pm 15:15 Cloudy with Light Rain 54 12.2 52 11.1 93 93 SSE 10 17 29.88 1012 10 16 0.00 0.03
3:54 pm 15:54 Cloudy 55 12.8 53 11.7 93 93 SE 8 13 29.88 1012 8 13 0.00 0.03
4:54 pm 16:54 Cloudy 56 13.3 53 11.7 90 90 SE 8 13 29.86 1011 9 14 0.00 0.00
5:01 pm 17:01 Cloudy 56 13.3 53 11.7 90 90 SE 6 9 29.85 1011 9 14 0.00 0.00
5:54 pm 17:54 Cloudy 56 13.3 53 11.7 90 90 SE 9 15 29.85 1011 8 13 0.00 0.00
6:52 pm 18:52 Cloudy 55 13 54 12 94 94 SE 12 19 29.85 1011 7 11 0.00 0.00
6:54 pm 18:54 Cloudy 56 13.3 53 11.7 90 90 SE 10 17 29.85 1011 7 11 0.00 0.00
7:54 pm 19:54 Cloudy with Mist and Fog 55 12.8 53 11.7 93 93 SE 12 19 29.85 1011 5 8 0.00 0.00
8:18 pm 20:18 Cloudy with Mist and Fog 55 13 54 12 94 94 SE 10 17 29.85 1011 5 8 0.00 0.00
8:54 pm 20:54 Cloudy with Mist and Fog 55 12.8 53 11.7 93 93 SE 7 11 29.84 1011 5 8 0.00 0.00
9:42 pm 21:42 Cloudy with Mist and Fog 55 13 54 12 94 94 SE 9 15 29.85 1011 5 8 0.00 0.00
9:54 pm 21:54 Cloudy with Mist and Fog 55 12.8 53 11.7 93 93 SE 8 13 29.84 1011 5 8 0.00 0.00
10:08 pm 22:08 Cloudy with Mist and Fog 55 13 54 12 94 94 ESE 7 11 29.83 1010 5 8 0.00 0.00
10:20 pm 22:20 Cloudy with Mist and Fog 55 13 54 12 94 94 ESE 8 13 29.83 1010 6 10 0.00 0.00
10:31 pm 22:31 Cloudy with Mist and Fog 55 12.8 53 11.7 93 93 ESE 8 13 29.83 1010 6 10 0.00 0.00
10:54 pm 22:54 Cloudy 55 12.8 53 11.7 93 93 ESE 8 13 29.82 1010 7 11 0.00 0.00
11:54 pm 23:54 Cloudy 55 12.8 53 11.7 93 93 SE 6 9 29.81 1010 7 11 0.00 0.00

Powered by AerisWeather